This demonstration page uses our WeatherBlox Daily Observations layout. Learn more.

Left ArrowRight Arrow

Hourly Observations for May 12, 2021

Temp ( °F °C ) Dew Point ( °F °C ) Humidity (%) Winds ( mph kmh ) Pressure ( in mb ) Visibility ( mi km ) Precip ( " mm )
12:53 am 00:53 Cloudy 65 18.3 57 13.9 76 76 Calm 30.06 1018 10 16 0.00 0.00
1:53 am 01:53 Cloudy 64 17.8 57 13.9 78 78 Calm 30.04 1017 10 16 0.00 0.00
2:53 am 02:53 Cloudy 64 17.8 56 13.3 75 75 SE 5 7 30.03 1017 10 16 0.00 0.00
3:53 am 03:53 Cloudy 63 17.2 57 13.9 81 81 NW 3 6 30.02 1017 10 16 0.00 0.00
4:53 am 04:53 Cloudy with Light Rain 61 16.1 60 15.6 97 97 N 3 6 30.02 1017 7 11 0.04 1.02
5:53 am 05:53 Cloudy with Rain 61 16.1 59 15 93 93 NW 3 6 30.04 1017 6 10 0.07 1.78
6:21 am 06:21 Cloudy with Rain 60 15.6 58 14.4 93 93 WNW 6 9 30.05 1018 5 8 0.05 1.27
6:31 am 06:31 Cloudy with Rain 60 15.6 58 14.4 93 93 Calm 30.06 1018 4 6 0.07 1.78
6:44 am 06:44 Cloudy with Rain 59 15 58 14.4 96 96 Calm 30.07 1018 4 6 0.12 3.05
6:53 am 06:53 Cloudy with Rain 59 15 58 14.4 96 96 Calm 30.06 1018 5 8 0.14 3.56
7:53 am 07:53 Cloudy with Light Rain 59 15 57 13.9 93 93 WNW 5 7 30.08 1019 7 11 0.07 1.78
8:53 am 08:53 Cloudy with Light Rain 58 14.4 56 13.3 93 93 VRB 5 7 30.10 1019 5 8 0.09 2.29
9:53 am 09:53 Cloudy with Light Rain 57 13.9 56 13.3 96 96 NW 3 6 30.11 1020 5 8 0.02 0.51
10:53 am 10:53 Cloudy 57 13.9 55 12.8 93 93 NNW 5 7 30.12 1020 10 16 0.00 0.00
11:53 am 11:53 Cloudy 58 14.4 56 13.3 93 93 NNE 6 9 30.13 1020 10 16 0.00 0.00
12:53 pm 12:53 Cloudy with Light Rain 57 13.9 54 12.2 90 90 ENE 14 22 30.15 1021 8 13 0.03 0.76
1:53 pm 13:53 Cloudy 56 13.3 52 11.1 87 87 NE 12 19 30.16 1021 10 16 0.00 0.00
2:53 pm 14:53 Cloudy 55 12.8 50 10 83 83 NE 13 20 30.17 1022 10 16 0.00 0.00
3:36 pm 15:36 Cloudy 56 13.3 50 10 81 81 E 13 20 30.17 1022 10 16 0.00 0.00
3:53 pm 15:53 Cloudy 55 12.8 49 9.4 80 80 NE 12 19 30.17 1022 10 16 0.00 0.00
4:34 pm 16:34 Cloudy 55 12.8 48 8.9 77 77 ENE 14 22 30.18 1022 10 16 0.00 0.00
4:53 pm 16:53 Cloudy 55 12.8 47 8.3 74 74 E 10 17 30.18 1022 10 16 0.00 0.00
5:53 pm 17:53 Cloudy 54 12.2 48 8.9 80 80 NE 13 20 30.19 1023 10 16 0.00 0.00
6:53 pm 18:53 Cloudy 53 11.7 46 7.8 77 77 ENE 14 22 30.22 1023 10 16 0.00 0.00
7:53 pm 19:53 Cloudy 53 11.7 45 7.2 74 74 E 10 17 30.23 1024 10 16 0.00 0.00
8:20 pm 20:20 Cloudy 53 11.7 45 7.2 74 74 E 9 15 30.24 1024 10 16 0.00 0.00
8:36 pm 20:36 Cloudy 53 11.7 45 7.2 74 74 E 14 22 30.24 1024 10 16 0.00 0.00
8:53 pm 20:53 Cloudy 52 11.1 45 7.2 77 77 E 7 11 30.24 1024 10 16 0.00 0.00
9:15 pm 21:15 Cloudy 52 11.1 45 7.2 77 77 E 7 11 30.26 1025 10 16 0.00 0.00
9:53 pm 21:53 Mostly Cloudy 52 11.1 45 7.2 77 77 E 5 7 30.25 1025 10 16 0.00 0.00
10:17 pm 22:17 Mostly Cloudy 51 10.6 45 7.2 80 80 E 5 7 30.28 1025 10 16 0.00 0.00
10:53 pm 22:53 Cloudy 52 11.1 45 7.2 77 77 ENE 7 11 30.27 1025 10 16 0.00 0.00
11:53 pm 23:53 Partly Cloudy 50 10 45 7.2 83 83 ENE 5 7 30.27 1025 10 16 0.00 0.00

Powered by AerisWeather